Lac Benoit, Quebec

10:40 AM EDT on October 23, 2017 (GMT -0400)
Lac Benoit

Weather History for CWDE - July, 2013

Change the Weather History Date:

Wednesday, July 31, 2013

  Actual Average Record
Temperature  
Mean Temperature 60 °F -  
Max Temperature 69 °F - - ()
Min Temperature 51 °F - - ()
Degree Days  
Heating Degree Days 5    
Growing Degree Days 10 (Base 50)    
Moisture  
Dew Point 54 °F    
Average Humidity 90    
Maximum Humidity 100    
Minimum Humidity 49    
Precipitation  
Precipitation 0.00 in - - ()
Sea Level Pressure  
Sea Level Pressure 29.94 in    
Wind  
Wind Speed 5 mph ()    
Max Wind Speed 9 mph    
Max Gust Speed -    
T = Trace of Precipitation, MM = Missing Value Source: Averaged Metar Reports

Daily Weather History Graph

Daily Weather History Graph

Search for Another Location

Airport or City:

Trip Planner

Search our weather history database for the weather conditions in past years. The results will help you decide how hot, cold, wet, or windy it might be!

Date:

Astronomy

Jul. 31, 2013 Rise Set
Actual Time 5:06 AM EDT 8:33 PM EDT
Civil Twilight 4:26 AM EDT 9:14 PM EDT
Nautical Twilight 3:30 AM EDT 10:08 PM EDT
Astronomical Twilight 2:12 AM EDT 11:25 PM EDT
Moon 12:01 AM EDT (7/31) 3:49 PM EDT (7/31)
Length of Visible Light 16h 48m
Length of Day
15h 26m
Waning Crescent, 32% of the Moon is Illuminated
Jul 31
Waning Crescent
Aug 6
New
Aug 14
First Quarter
Aug 20
Full
Aug 28
Last Quarter

Hourly Weather History & Observations

Time (EDT) Temp. Dew Point Humidity Pressure Visibility Wind Dir Wind Speed Gust Speed Precip Events Conditions
12:00 AM 54.0 °F 54.0 °F 100% 29.94 in - NNW 5.8 mph - N/A   Unknown
1:00 AM 53.2 °F 53.2 °F 100% 29.93 in - NNW 5.8 mph - N/A   Unknown
2:00 AM 53 °F 53 °F 99% 29.93 in - NW 6.9 mph - -  
2:00 AM 52.9 °F 52.9 °F 100% 29.93 in - NW 6.9 mph - N/A   Unknown
3:00 AM 52.5 °F 52.5 °F 100% 29.93 in - NNW 4.6 mph - N/A   Unknown
4:00 AM 52.5 °F 52.5 °F 100% 29.93 in - NW 6.9 mph - N/A   Unknown
5:00 AM 52.2 °F 52.2 °F 100% 29.94 in - NW 9.2 mph - N/A   Unknown
6:00 AM 52.0 °F 52.0 °F 100% 29.95 in - NW 4.6 mph - N/A   Unknown
7:00 AM 52.2 °F 52.2 °F 100% 29.95 in - WNW 4.6 mph - N/A   Unknown
8:00 AM 53 °F 53 °F 100% 29.96 in - NNW 5.8 mph - -  
8:00 AM 53.2 °F 53.2 °F 100% 29.96 in - NNW 5.8 mph - N/A   Unknown
9:00 AM 56.3 °F 56.3 °F 100% 29.96 in - NW 5.8 mph - N/A   Unknown
10:00 AM 62.6 °F 57.7 °F 84% 29.95 in - NW 5.8 mph - N/A   Unknown
11:00 AM 64.2 °F 54.7 °F 71% 29.94 in - NNW 9.2 mph - N/A   Unknown
12:00 PM 63.1 °F 58.3 °F 84% 29.95 in - WNW 9.2 mph - N/A   Unknown
1:00 PM 64.4 °F 59.2 °F 83% 29.94 in - West 2.3 mph - N/A   Unknown
2:00 PM 59.7 °F 54.1 °F 82% 29.96 in - NNE 4.6 mph - N/A   Unknown
3:00 PM 63.3 °F 56.3 °F 78% 29.94 in - SW 1.2 mph - N/A   Unknown
4:00 PM 67.1 °F 57.7 °F 72% 29.93 in - WNW 3.5 mph - N/A   Unknown
5:00 PM 63.0 °F 54.5 °F 74% 29.94 in - NNE 3.5 mph - N/A   Unknown
6:00 PM 68.9 °F 48.9 °F 49% 29.93 in - ENE 2.3 mph - N/A   Unknown
7:00 PM 62.4 °F 55.8 °F 79% 29.95 in - SW 5.8 mph - N/A   Unknown
8:00 PM 60 °F 57 °F 87% 29.95 in - SE 1.2 mph - -  
8:00 PM 59.7 °F 57.0 °F 91% 29.95 in - SE 1.2 mph - N/A   Unknown
9:00 PM 54.1 °F 52.5 °F 94% 29.94 in - Calm Calm - N/A   Unknown
10:00 PM 51.1 °F 50.7 °F 99% 29.96 in - SSE 4.6 mph - N/A   Unknown
11:00 PM 51.4 °F 51.1 °F 99% 29.95 in - SSE 3.5 mph - N/A   Unknown